Weather in Bambolim

India     15°28′46″N   73°51′19″E
temp.,
°C
wind,
m/s
gust,
m/s
humid.,
%
clouds,
%
prec.,
mm/h
press.,
hPa
HPBL,
m
21 april, wed
wed2123:30+28w336990 0.0 1011692
02:30+28wnw337132 0.0 1009737
05:30+27n3373100 0.1 1010628
08:30+28n227099 0.0 1012459
11:30+29w556912 0.0 1012573
14:30+30wnw77652 0.0 1009539
17:30+29nw91066100 0.0 1008729
20:30+29nw797084 0.0 1010803
22 april, thu
thu2223:30+29nnw687079 0.0 1011808
02:30+27nnw4573100 0.0 1009547
05:30+26nne3376100 0.0 1010377
08:30+27nne2471100 0.0 1012348
11:30+28wnw667299 0.0 1011555
14:30+30wnw8866100 0.0 1008623
17:30+29wnw7766100 0.0 1009823
20:30+29nw5769100 0.0 1010689
23 april, fri
fri2323:30+28nw4571100 0.0 1011707
02:30+27nnw347138 0.0 1009668
05:30+26ne227735 0.0 1010214
08:30+27ene32738 0.0 1012375
11:30+28w557554 0.0 1012581
14:30+29w656797 0.0 1009668
17:30+29wnw6665100 0.0 1008904
20:30+29nw676886 0.0 1010755
24 april, sat
sat2423:30+28nnw566972 0.0 1011597
02:30+27nnw347260 0.0 1009467
05:30+26nne3377100 0.0 1010319
08:30+27ne2370100 0.0 1011282
11:30+28w6670100 0.0 1010526
14:30+30wnw8863100 0.0 1008531
17:30+29nw88640 0.0 1008781
20:30+29nw78690 0.0 1010749
25 april, sun
sun2523:30+28nnw56720 0.0 1010701
02:30+27n34730 0.0 1009494
05:30+26nne23795 0.0 1009258
08:30+27ene11714 0.0 1012283
11:30+28wnw55774 0.0 1011503
14:30+30w88685 0.0 1008654
17:30+29nw777068 0.0 1007908
20:30+29nw67725 0.0 1009752